Time,TemperatureF,DewpointF,PressureIn,WindDirection,WindDirectionDegrees,WindSpeedMPH,WindSpeedGustMPH,Humidity,HourlyPrecipIn,Conditions,Clouds,dailyrainin,SolarRadiationWatts/m^2,SoftwareType,DateUTC
2013-02-22 00:02:00,73.0,67.0,-100.00,SE,135,6.0,-999.0,81,0.00,,,-99.99,0.000000,,2013-02-22 05:02:00,
2013-02-22 00:12:00,73.0,67.0,-100.00,SE,131,7.0,-999.0,81,0.00,,,-99.99,0.000000,,2013-02-22 05:12:00,
2013-02-22 00:22:00,73.0,67.0,-100.00,SE,131,7.0,-999.0,81,0.00,,,-99.99,0.000000,,2013-02-22 05:22:00,
2013-02-22 00:32:00,73.0,68.0,-100.00,SE,131,7.0,-999.0,82,0.00,,,-99.99,0.000000,,2013-02-22 05:32:00,
2013-02-22 00:42:00,73.0,68.0,-100.00,ESE,113,5.0,-999.0,83,0.00,,,-99.99,0.000000,,2013-02-22 05:42:00,
2013-02-22 00:52:00,73.0,68.0,-100.00,ESE,113,5.0,-999.0,83,0.00,,,-99.99,0.000000,,2013-02-22 05:52:00,
2013-02-22 01:01:00,73.0,68.0,-100.00,ESE,119,5.0,-999.0,84,0.00,,,-99.99,0.000000,,2013-02-22 06:01:00,
2013-02-22 01:12:00,73.0,68.0,-100.00,SE,125,6.0,-999.0,85,0.00,,,-99.99,0.000000,,2013-02-22 06:12:00,
2013-02-22 01:22:00,73.0,68.0,-100.00,SE,125,6.0,-999.0,85,0.00,,,-99.99,0.000000,,2013-02-22 06:22:00,
2013-02-22 01:32:00,73.0,68.0,-100.00,SE,134,7.0,-999.0,84,0.00,,,-99.99,0.000000,,2013-02-22 06:32:00,
2013-02-22 01:42:00,73.0,68.0,-100.00,SE,130,8.0,-999.0,84,0.00,,,-99.99,0.000000,,2013-02-22 06:42:00,
2013-02-22 01:52:00,73.0,68.0,-100.00,SE,130,8.0,-999.0,84,0.00,,,-99.99,0.000000,,2013-02-22 06:52:00,
2013-02-22 02:01:00,73.0,68.0,-100.00,SE,126,6.0,-999.0,85,0.00,,,-99.99,0.000000,,2013-02-22 07:01:00,
2013-02-22 02:11:00,73.0,69.0,-100.00,SE,131,7.0,-999.0,85,0.00,,,-99.99,0.000000,,2013-02-22 07:11:00,
2013-02-22 02:21:00,73.0,69.0,-100.00,SE,131,7.0,-999.0,85,0.00,,,-99.99,0.000000,,2013-02-22 07:21:00,
2013-02-22 02:31:00,73.0,69.0,-100.00,SE,128,7.0,-999.0,85,0.00,,,-99.99,0.000000,,2013-02-22 07:31:00,
2013-02-22 02:42:00,73.0,69.0,-100.00,SE,130,6.0,-999.0,85,0.00,,,-99.99,0.000000,,2013-02-22 07:42:00,
2013-02-22 02:52:00,73.0,69.0,-100.00,SE,130,6.0,-999.0,85,0.00,,,-99.99,0.000000,,2013-02-22 07:52:00,
2013-02-22 03:01:00,74.0,69.0,-100.00,SE,132,8.0,-999.0,85,0.00,,,-99.99,0.000000,,2013-02-22 08:01:00,
2013-02-22 03:11:00,74.0,69.0,-100.00,SE,130,9.0,-999.0,85,0.00,,,-99.99,0.000000,,2013-02-22 08:11:00,
2013-02-22 03:21:00,74.0,69.0,-100.00,SE,130,9.0,-999.0,85,0.00,,,-99.99,0.000000,,2013-02-22 08:21:00,
2013-02-22 03:31:00,74.0,69.0,-100.00,SE,132,9.0,-999.0,85,0.00,,,-99.99,0.000000,,2013-02-22 08:31:00,
2013-02-22 03:42:00,74.0,69.0,-100.00,SE,132,9.0,-999.0,86,0.00,,,-99.99,0.000000,,2013-02-22 08:42:00,
2013-02-22 03:52:00,74.0,69.0,-100.00,SE,132,9.0,-999.0,86,0.00,,,-99.99,0.000000,,2013-02-22 08:52:00,
2013-02-22 04:03:00,74.0,69.0,-100.00,SE,132,7.0,-999.0,86,0.00,,,-99.99,0.000000,,2013-02-22 09:03:00,
2013-02-22 04:11:00,73.0,69.0,-100.00,SE,138,7.0,-999.0,86,0.00,,,-99.99,0.000000,,2013-02-22 09:11:00,
2013-02-22 04:21:00,73.0,69.0,-100.00,SE,138,7.0,-999.0,86,0.00,,,-99.99,0.000000,,2013-02-22 09:21:00,
2013-02-22 04:32:00,73.0,69.0,-100.00,SE,141,5.0,-999.0,87,0.00,,,-99.99,0.000000,,2013-02-22 09:32:00,
2013-02-22 04:42:00,73.0,69.0,-100.00,SE,143,6.0,-999.0,87,0.00,,,-99.99,0.000000,,2013-02-22 09:42:00,
2013-02-22 04:52:00,73.0,69.0,-100.00,SE,143,6.0,-999.0,87,0.00,,,-99.99,0.000000,,2013-02-22 09:52:00,
2013-02-22 05:01:00,73.0,69.0,-100.00,SE,143,5.0,-999.0,87,0.00,,,-99.99,0.000000,,2013-02-22 10:01:00,
2013-02-22 05:11:00,73.0,69.0,-100.00,SE,140,6.0,-999.0,87,0.00,,,-99.99,0.000000,,2013-02-22 10:11:00,
2013-02-22 05:21:00,73.0,69.0,-100.00,SE,140,6.0,-999.0,87,0.00,,,-99.99,0.000000,,2013-02-22 10:21:00,
2013-02-22 05:32:00,73.0,69.0,-100.00,SE,140,6.0,-999.0,87,0.00,,,-99.99,0.000000,,2013-02-22 10:32:00,
2013-02-22 05:42:00,73.0,69.0,-100.00,SE,132,4.0,-999.0,87,0.00,,,-99.99,0.000000,,2013-02-22 10:42:00,
2013-02-22 05:52:00,73.0,69.0,-100.00,SE,132,4.0,-999.0,87,0.00,,,-99.99,0.000000,,2013-02-22 10:52:00,
2013-02-22 06:01:00,73.0,69.0,-100.00,SE,133,5.0,-999.0,87,0.00,,,-99.99,0.000000,,2013-02-22 11:01:00,
2013-02-22 06:11:00,73.0,69.0,-100.00,SE,134,6.0,-999.0,87,0.00,,,-99.99,0.000000,,2013-02-22 11:11:00,
2013-02-22 06:21:00,73.0,69.0,-100.00,SE,134,6.0,-999.0,87,0.00,,,-99.99,0.000000,,2013-02-22 11:21:00,
2013-02-22 06:32:00,74.0,70.0,-100.00,SE,135,7.0,-999.0,87,0.00,,,-99.99,0.000000,,2013-02-22 11:32:00,
2013-02-22 06:42:00,74.0,70.0,-100.00,SE,138,6.0,-999.0,87,0.00,,,-99.99,0.000000,,2013-02-22 11:42:00,
2013-02-22 06:52:00,74.0,70.0,-100.00,SE,138,6.0,-999.0,87,0.00,,,-99.99,0.000000,,2013-02-22 11:52:00,
2013-02-22 07:02:00,74.0,70.0,-100.00,SE,131,6.0,-999.0,87,0.00,,,-99.99,0.200000,,2013-02-22 12:02:00,
2013-02-22 07:11:00,74.0,70.0,-100.00,SE,135,6.0,-999.0,87,0.00,,,-99.99,3.900000,,2013-02-22 12:11:00,
2013-02-22 07:22:00,74.0,70.0,-100.00,SE,135,6.0,-999.0,87,0.00,,,-99.99,3.900000,,2013-02-22 12:22:00,
2013-02-22 07:32:00,74.0,70.0,-100.00,SE,135,6.0,-999.0,87,0.00,,,-99.99,13.200000,,2013-02-22 12:32:00,
2013-02-22 07:42:00,74.0,70.0,-100.00,SE,141,7.0,-999.0,87,0.00,,,-99.99,54.099998,,2013-02-22 12:42:00,
2013-02-22 07:52:00,74.0,70.0,-100.00,SE,141,7.0,-999.0,87,0.00,,,-99.99,54.099998,,2013-02-22 12:52:00,
2013-02-22 08:02:00,75.0,70.0,-100.00,SE,145,7.0,-999.0,86,0.00,,,-99.99,112.599998,,2013-02-22 13:02:00,
2013-02-22 08:11:00,75.0,70.0,-100.00,SE,141,8.0,-999.0,84,0.00,,,-99.99,173.399994,,2013-02-22 13:11:00,
2013-02-22 08:22:00,75.0,70.0,-100.00,SE,141,8.0,-999.0,84,0.00,,,-99.99,173.399994,,2013-02-22 13:22:00,
2013-02-22 08:32:00,76.0,70.0,-100.00,SE,137,9.0,-999.0,83,0.00,,,-99.99,179.699997,,2013-02-22 13:32:00,
2013-02-22 08:42:00,76.0,70.0,-100.00,SE,138,8.0,-999.0,82,0.00,,,-99.99,242.500000,,2013-02-22 13:42:00,
2013-02-22 08:52:00,76.0,70.0,-100.00,SE,138,8.0,-999.0,82,0.00,,,-99.99,242.500000,,2013-02-22 13:52:00,
2013-02-22 09:01:00,77.0,70.0,-100.00,SE,139,9.0,-999.0,80,0.00,,,-99.99,279.299988,,2013-02-22 14:01:00,
2013-02-22 09:11:00,76.0,70.0,-100.00,SSE,150,9.0,-999.0,81,0.00,,,-99.99,171.800003,,2013-02-22 14:11:00,
2013-02-22 09:21:00,76.0,70.0,-100.00,SSE,150,9.0,-999.0,81,0.00,,,-99.99,171.800003,,2013-02-22 14:21:00,
2013-02-22 09:32:00,77.0,70.0,-100.00,SE,145,10.0,-999.0,80,0.00,,,-99.99,304.600006,,2013-02-22 14:32:00,
2013-02-22 09:42:00,78.0,70.0,-100.00,SE,145,10.0,-999.0,78,0.00,,,-99.99,427.600006,,2013-02-22 14:42:00,
2013-02-22 09:53:00,78.0,70.0,-100.00,SE,145,10.0,-999.0,78,0.00,,,-99.99,427.600006,,2013-02-22 14:53:00,
2013-02-22 10:01:00,77.0,70.0,-100.00,SE,137,10.0,-999.0,78,0.00,,,-99.99,290.799988,,2013-02-22 15:01:00,
2013-02-22 10:12:00,78.0,70.0,-100.00,SE,140,9.0,-999.0,77,0.00,,,-99.99,254.500000,,2013-02-22 15:12:00,
2013-02-22 10:22:00,78.0,70.0,-100.00,SE,140,9.0,-999.0,77,0.00,,,-99.99,254.500000,,2013-02-22 15:22:00,
2013-02-22 10:32:00,78.0,70.0,-100.00,SE,144,8.0,-999.0,78,0.00,,,-99.99,204.000000,,2013-02-22 15:32:00,
2013-02-22 10:42:00,78.0,71.0,-100.00,SE,139,8.0,-999.0,79,0.00,,,-99.99,152.399994,,2013-02-22 15:42:00,
2013-02-22 10:52:00,78.0,71.0,-100.00,SE,139,8.0,-999.0,79,0.00,,,-99.99,152.399994,,2013-02-22 15:52:00,
2013-02-22 11:01:00,78.0,71.0,-100.00,SE,132,9.0,-999.0,79,0.00,,,-99.99,306.200012,,2013-02-22 16:01:00,
2013-02-22 11:12:00,79.0,71.0,-100.00,SE,141,10.0,-999.0,76,0.00,,,-99.99,706.000000,,2013-02-22 16:12:00,
2013-02-22 11:22:00,79.0,71.0,-100.00,SE,141,10.0,-999.0,76,0.00,,,-99.99,706.000000,,2013-02-22 16:22:00,
2013-02-22 11:32:00,80.0,71.0,-100.00,SE,140,9.0,-999.0,74,0.00,,,-99.99,482.100006,,2013-02-22 16:32:00,
2013-02-22 11:42:00,79.0,70.0,-100.00,SE,141,11.0,-999.0,75,0.00,,,-99.99,497.100006,,2013-02-22 16:42:00,
2013-02-22 11:52:00,79.0,70.0,-100.00,SE,141,11.0,-999.0,75,0.00,,,-99.99,497.100006,,2013-02-22 16:52:00,
2013-02-22 12:01:00,79.0,70.0,-100.00,SSE,154,10.0,-999.0,75,0.00,,,-99.99,375.100006,,2013-02-22 17:01:00,
2013-02-22 12:11:00,79.0,71.0,-100.00,SE,146,10.0,-999.0,75,0.00,,,-99.99,647.900024,,2013-02-22 17:11:00,
2013-02-22 12:21:00,79.0,71.0,-100.00,SE,146,10.0,-999.0,75,0.00,,,-99.99,647.900024,,2013-02-22 17:21:00,
2013-02-22 12:32:00,81.0,71.0,-100.00,SSE,159,10.0,-999.0,72,0.00,,,-99.99,751.000000,,2013-02-22 17:32:00,
2013-02-22 12:42:00,80.0,71.0,-100.00,SSE,156,11.0,-999.0,73,0.00,,,-99.99,541.299988,,2013-02-22 17:42:00,
2013-02-22 12:52:00,80.0,71.0,-100.00,SSE,156,11.0,-999.0,73,0.00,,,-99.99,541.299988,,2013-02-22 17:52:00,
2013-02-22 13:01:00,80.0,71.0,-100.00,SSE,160,11.0,-999.0,72,0.00,,,-99.99,813.000000,,2013-02-22 18:01:00,
2013-02-22 13:12:00,81.0,71.0,-100.00,SSE,147,11.0,-999.0,72,0.00,,,-99.99,609.599976,,2013-02-22 18:12:00,
2013-02-22 13:22:00,81.0,71.0,-100.00,SSE,147,11.0,-999.0,72,0.00,,,-99.99,609.599976,,2013-02-22 18:22:00,
2013-02-22 13:32:00,80.0,70.0,-100.00,SE,140,11.0,-999.0,72,0.00,,,-99.99,465.500000,,2013-02-22 18:32:00,
2013-02-22 13:42:00,81.0,70.0,-100.00,SSE,150,10.0,-999.0,71,0.00,,,-99.99,712.000000,,2013-02-22 18:42:00,
2013-02-22 13:52:00,81.0,70.0,-100.00,SSE,150,10.0,-999.0,71,0.00,,,-99.99,712.000000,,2013-02-22 18:52:00,
2013-02-22 14:01:00,81.0,70.0,-100.00,SSE,168,8.0,-999.0,69,0.00,,,-99.99,472.500000,,2013-02-22 19:01:00,
2013-02-22 14:11:00,81.0,70.0,-100.00,SSE,153,9.0,-999.0,70,0.00,,,-99.99,630.500000,,2013-02-22 19:11:00,
2013-02-22 14:21:00,81.0,70.0,-100.00,SSE,153,9.0,-999.0,70,0.00,,,-99.99,630.500000,,2013-02-22 19:21:00,
2013-02-22 14:31:00,80.0,70.0,-100.00,SSE,148,10.0,-999.0,70,0.00,,,-99.99,516.200012,,2013-02-22 19:31:00,
2013-02-22 14:41:00,80.0,70.0,-100.00,SSE,150,10.0,-999.0,71,0.00,,,-99.99,442.000000,,2013-02-22 19:41:00,
2013-02-22 14:52:00,80.0,70.0,-100.00,SSE,150,10.0,-999.0,71,0.00,,,-99.99,442.000000,,2013-02-22 19:52:00,
2013-02-22 15:01:00,80.0,70.0,-100.00,SSE,149,9.0,-999.0,72,0.00,,,-99.99,396.000000,,2013-02-22 20:01:00,
2013-02-22 15:11:00,80.0,70.0,-100.00,SSE,147,9.0,-999.0,71,0.00,,,-99.99,537.099976,,2013-02-22 20:11:00,
2013-02-22 15:21:00,80.0,70.0,-100.00,SSE,147,9.0,-999.0,71,0.00,,,-99.99,537.099976,,2013-02-22 20:21:00,
2013-02-22 15:32:00,80.0,69.0,-100.00,SSE,155,8.0,-999.0,69,0.00,,,-99.99,446.700012,,2013-02-22 20:32:00,
2013-02-22 15:41:00,81.0,69.0,-100.00,SSE,149,9.0,-999.0,67,0.00,,,-99.99,555.299988,,2013-02-22 20:41:00,
2013-02-22 15:52:00,81.0,69.0,-100.00,SSE,149,9.0,-999.0,67,0.00,,,-99.99,555.299988,,2013-02-22 20:52:00,
2013-02-22 16:01:00,81.0,69.0,-100.00,SSE,161,8.0,-999.0,67,0.00,,,-99.99,490.700012,,2013-02-22 21:01:00,
2013-02-22 16:11:00,80.0,69.0,-100.00,SSE,148,10.0,-999.0,69,0.00,,,-99.99,432.700012,,2013-02-22 21:11:00,
2013-02-22 16:21:00,80.0,69.0,-100.00,SSE,148,10.0,-999.0,69,0.00,,,-99.99,432.700012,,2013-02-22 21:21:00,
2013-02-22 16:32:00,80.0,70.0,-100.00,SE,139,10.0,-999.0,70,0.00,,,-99.99,424.500000,,2013-02-22 21:32:00,
2013-02-22 16:42:00,80.0,70.0,-100.00,SE,144,9.0,-999.0,71,0.00,,,-99.99,373.899994,,2013-02-22 21:42:00,
2013-02-22 16:52:00,80.0,70.0,-100.00,SE,144,9.0,-999.0,71,0.00,,,-99.99,373.899994,,2013-02-22 21:52:00,
2013-02-22 17:01:00,79.0,69.0,-100.00,SSE,152,9.0,-999.0,71,0.00,,,-99.99,297.700012,,2013-02-22 22:01:00,
2013-02-22 17:11:00,79.0,70.0,-100.00,SE,134,8.0,-999.0,73,0.00,,,-99.99,224.699997,,2013-02-22 22:11:00,
2013-02-22 17:21:00,79.0,70.0,-100.00,SE,134,8.0,-999.0,73,0.00,,,-99.99,224.699997,,2013-02-22 22:21:00,
2013-02-22 17:31:00,78.0,70.0,-100.00,SE,142,8.0,-999.0,76,0.00,,,-99.99,175.399994,,2013-02-22 22:31:00,
2013-02-22 17:42:00,78.0,70.0,-100.00,SSE,148,8.0,-999.0,75,0.00,,,-99.99,187.399994,,2013-02-22 22:42:00,
2013-02-22 17:52:00,78.0,70.0,-100.00,SSE,148,8.0,-999.0,75,0.00,,,-99.99,187.399994,,2013-02-22 22:52:00,
2013-02-22 18:01:00,78.0,70.0,-100.00,SE,138,8.0,-999.0,76,0.00,,,-99.99,152.600006,,2013-02-22 23:01:00,
2013-02-22 18:11:00,78.0,70.0,-100.00,SE,131,8.0,-999.0,77,0.00,,,-99.99,54.799999,,2013-02-22 23:11:00,
2013-02-22 18:21:00,78.0,70.0,-100.00,SE,131,8.0,-999.0,77,0.00,,,-99.99,54.799999,,2013-02-22 23:21:00,
2013-02-22 18:31:00,77.0,70.0,-100.00,SE,129,7.0,-999.0,80,0.00,,,-99.99,11.600000,,2013-02-22 23:31:00,
2013-02-22 18:42:00,76.0,70.0,-100.00,SE,127,7.0,-999.0,82,0.00,,,-99.99,1.700000,,2013-02-22 23:42:00,
2013-02-22 18:52:00,76.0,70.0,-100.00,SE,127,7.0,-999.0,82,0.00,,,-99.99,1.700000,,2013-02-22 23:52:00,
2013-02-22 19:02:00,76.0,70.0,-100.00,SE,130,9.0,-999.0,83,0.00,,,-99.99,0.000000,,2013-02-23 00:02:00,
2013-02-22 19:11:00,76.0,70.0,-100.00,SE,130,8.0,-999.0,83,0.00,,,-99.99,0.000000,,2013-02-23 00:11:00,
2013-02-22 19:21:00,76.0,70.0,-100.00,SE,130,8.0,-999.0,83,0.00,,,-99.99,0.000000,,2013-02-23 00:21:00,
2013-02-22 19:32:00,76.0,71.0,-100.00,SE,131,9.0,-999.0,84,0.00,,,-99.99,0.000000,,2013-02-23 00:32:00,
2013-02-22 19:42:00,76.0,71.0,-100.00,SE,131,9.0,-999.0,85,0.00,,,-99.99,0.000000,,2013-02-23 00:42:00,
2013-02-22 19:52:00,76.0,71.0,-100.00,SE,131,9.0,-999.0,85,0.00,,,-99.99,0.000000,,2013-02-23 00:52:00,
2013-02-22 20:01:00,76.0,71.0,-100.00,SE,131,10.0,-999.0,85,0.00,,,-99.99,0.000000,,2013-02-23 01:01:00,
2013-02-22 20:11:00,75.0,71.0,-100.00,SE,132,8.0,-999.0,85,0.00,,,-99.99,0.000000,,2013-02-23 01:11:00,
2013-02-22 20:21:00,75.0,71.0,-100.00,SE,132,8.0,-999.0,85,0.00,,,-99.99,0.000000,,2013-02-23 01:21:00,
2013-02-22 20:32:00,75.0,71.0,-100.00,SE,134,9.0,-999.0,85,0.00,,,-99.99,0.000000,,2013-02-23 01:32:00,
2013-02-22 20:42:00,75.0,71.0,-100.00,SE,135,9.0,-999.0,85,0.00,,,-99.99,0.000000,,2013-02-23 01:42:00,
2013-02-22 20:52:00,75.0,71.0,-100.00,SE,135,9.0,-999.0,85,0.00,,,-99.99,0.000000,,2013-02-23 01:52:00,
2013-02-22 21:01:00,75.0,71.0,-100.00,SE,129,8.0,-999.0,85,0.00,,,-99.99,0.000000,,2013-02-23 02:01:00,
2013-02-22 21:11:00,75.0,71.0,-100.00,SE,131,9.0,-999.0,86,0.00,,,-99.99,0.000000,,2013-02-23 02:11:00,
2013-02-22 21:21:00,75.0,71.0,-100.00,SE,131,9.0,-999.0,86,0.00,,,-99.99,0.000000,,2013-02-23 02:21:00,
2013-02-22 21:32:00,75.0,71.0,-100.00,SE,128,8.0,-999.0,86,0.00,,,-99.99,0.000000,,2013-02-23 02:32:00,
2013-02-22 21:42:00,75.0,71.0,-100.00,SE,129,8.0,-999.0,86,0.00,,,-99.99,0.000000,,2013-02-23 02:42:00,
2013-02-22 21:52:00,75.0,71.0,-100.00,SE,129,8.0,-999.0,86,0.00,,,-99.99,0.000000,,2013-02-23 02:52:00,
2013-02-22 22:01:00,75.0,71.0,-100.00,SE,135,8.0,-999.0,86,0.00,,,-99.99,0.000000,,2013-02-23 03:01:00,
2013-02-22 22:11:00,75.0,71.0,-100.00,SE,132,7.0,-999.0,86,0.00,,,-99.99,0.000000,,2013-02-23 03:11:00,
2013-02-22 22:21:00,75.0,71.0,-100.00,SE,132,7.0,-999.0,86,0.00,,,-99.99,0.000000,,2013-02-23 03:21:00,
2013-02-22 22:32:00,75.0,71.0,-100.00,SE,133,8.0,-999.0,86,0.00,,,-99.99,0.000000,,2013-02-23 03:32:00,
2013-02-22 22:42:00,75.0,71.0,-100.00,SE,133,8.0,-999.0,86,0.00,,,-99.99,0.000000,,2013-02-23 03:42:00,
2013-02-22 22:52:00,75.0,71.0,-100.00,SE,133,8.0,-999.0,86,0.00,,,-99.99,0.000000,,2013-02-23 03:52:00,
2013-02-22 23:01:00,75.0,71.0,-100.00,SE,134,9.0,-999.0,87,0.00,,,-99.99,0.000000,,2013-02-23 04:01:00,
2013-02-22 23:11:00,74.0,71.0,-100.00,SE,136,9.0,-999.0,87,0.00,,,-99.99,0.000000,,2013-02-23 04:11:00,
2013-02-22 23:21:00,74.0,71.0,-100.00,SE,136,9.0,-999.0,87,0.00,,,-99.99,0.000000,,2013-02-23 04:21:00,
2013-02-22 23:31:00,74.0,71.0,-100.00,SE,134,8.0,-999.0,87,0.00,,,-99.99,0.000000,,2013-02-23 04:31:00,
2013-02-22 23:41:00,74.0,71.0,-100.00,SE,137,8.0,-999.0,88,0.00,,,-99.99,0.000000,,2013-02-23 04:41:00,
2013-02-22 23:52:00,74.0,71.0,-100.00,SE,137,8.0,-999.0,88,0.00,,,-99.99,0.000000,,2013-02-23 04:52:00,